This is the latest recevied weather packets stored in our database for station/object K5UBE. If no packets are shown the sender has not sent any weather packets the latest 10 day(s).
| Time | Temp. | Humidity | Pressure | Rain* | Wind** | Luminosity | Snow |
|---|---|---|---|---|---|---|---|
| 1778110007 | 23.89° C | 16% | 1014.2 hPa | 0 mm | - | - | - |
| 1778109703 | 23.89° C | 14% | 1014.1 hPa | 0 mm | - | - | - |
| 1778109400 | 24.44° C | 13% | 1013.9 hPa | 0 mm | - | - | - |
| 1778109099 | 25° C | 13% | 1014.1 hPa | 0 mm | - | - | - |
| 1778108795 | 24.44° C | 13% | 1013.9 hPa | 0 mm | - | - | - |
| 1778108492 | 25.56° C | 13% | 1013.8 hPa | 0 mm | - | - | - |
| 1778108189 | 25.56° C | 13% | 1014 hPa | 0 mm | - | - | - |
| 1778107885 | 24.44° C | 14% | 1014 hPa | 0 mm | - | - | - |
| 1778107582 | 23.89° C | 14% | 1014 hPa | 0 mm | - | - | - |
| 1778107278 | 25° C | 14% | 1014.1 hPa | 0 mm | - | - | - |
| 1778106975 | 25.56° C | 13% | 1014 hPa | 0 mm | - | - | - |
| 1778106671 | 25.56° C | 13% | 1014 hPa | 0 mm | - | - | - |
| 1778106368 | 25.56° C | 13% | 1014 hPa | 0 mm | - | - | - |
| 1778106064 | 25° C | 14% | 1014.1 hPa | 0 mm | - | - | - |
| 1778105762 | 23.89° C | 14% | 1014.1 hPa | 0 mm | - | - | - |
| 1778105460 | 24.44° C | 15% | 1014.2 hPa | 0 mm | - | - | - |
| 1778105156 | 25.56° C | 13% | 1014.2 hPa | 0 mm | - | - | - |
| 1778104851 | 24.44° C | 16% | 1014.2 hPa | 0 mm | - | - | - |
| 1778104548 | 24.44° C | 18% | 1014.1 hPa | 0 mm | - | - | - |
| 1778104244 | 23.89° C | 17% | 1014.1 hPa | 0 mm | - | - | - |
| 1778103941 | 23.33° C | 19% | 1014.6 hPa | 0 mm | - | - | - |
| 1778103638 | 22.78° C | 20% | 1014.8 hPa | 0 mm | - | - | - |
| 1778103336 | 23.33° C | 20% | 1014.8 hPa | 0 mm | - | - | - |
| 1778103033 | 23.33° C | 19% | 1014.8 hPa | 0 mm | - | - | - |
| 1778102730 | 22.78° C | 20% | 1015 hPa | 0 mm | - | - | - |
* Rain latest hour (hover to see other rain measurements)
** Current wind speed in m/s (hover to see current wind gust speed)